This demonstration page uses our WeatherBlox Daily Observations layout. Learn more.

Left ArrowRight Arrow

Hourly Observations for January 27, 2022

Temp ( °F °C ) Dew Point ( °F °C ) Humidity (%) Winds ( mph kmh ) Pressure ( in mb ) Visibility ( mi km ) Precip ( " mm )
12:53 am 00:53 Clear 29 -1.7 19 -7.2 66 66 Calm 30.29 1026 10 16 0.00 0.00
1:53 am 01:53 Clear 29 -1.7 19 -7.2 66 66 Calm 30.29 1026 10 16 0.00 0.00
2:53 am 02:53 Clear 29 -1.7 19 -7.2 66 66 Calm 30.30 1026 10 16 0.00 0.00
3:53 am 03:53 Clear 29 -1.7 19 -7.2 66 66 Calm 30.31 1027 10 16 0.00 0.00
4:53 am 04:53 Clear 28 -2.2 21 -6.1 75 75 Calm 30.32 1027 10 16 0.00 0.00
5:53 am 05:53 Clear 29 -1.7 22 -5.6 75 75 Calm 30.34 1027 10 16 0.00 0.00
6:53 am 06:53 Clear 31 -0.6 24 -4.4 76 76 Calm 30.36 1028 10 16 0.00 0.00
7:53 am 07:53 Sunny 31 -0.6 25 -3.9 79 79 ENE 5 7 30.38 1029 10 16 0.00 0.00
8:53 am 08:53 Sunny 35 1.7 25 -3.9 67 67 ENE 10 17 30.38 1029 10 16 0.00 0.00
9:53 am 09:53 Sunny 39 3.9 23 -5 53 53 ENE 7 11 30.38 1029 10 16 0.00 0.00
10:53 am 10:53 Sunny 42 5.6 20 -6.7 41 41 E 9 15 30.37 1029 10 16 0.00 0.00
11:53 am 11:53 Sunny 45 7.2 20 -6.7 37 37 E 7 11 30.35 1028 10 16 0.00 0.00
12:53 pm 12:53 Sunny 47 8.3 20 -6.7 34 34 SE 5 7 30.31 1027 10 16 0.00 0.00
1:53 pm 13:53 Sunny 49 9.4 21 -6.1 33 33 undefined N/A 30.27 1025 10 16 0.00 0.00
2:53 pm 14:53 Sunny 51 10.6 23 -5 33 33 Calm 30.24 1024 10 16 0.00 0.00
3:53 pm 15:53 Sunny 52 11.1 22 -5.6 31 31 ENE 5 7 30.22 1024 10 16 0.00 0.00
4:53 pm 16:53 Sunny 53 11.7 22 -5.6 30 30 ENE 6 9 30.22 1023 10 16 0.00 0.00
5:53 pm 17:53 Sunny 51 10.6 22 -5.6 32 32 ESE 3 6 30.22 1023 10 16 0.00 0.00
6:53 pm 18:53 Clear 49 9.4 22 -5.6 35 35 ESE 3 6 30.22 1023 10 16 0.00 0.00
7:53 pm 19:53 Clear 41 5 28 -2.2 60 60 Calm 30.24 1024 10 16 0.00 0.00
8:53 pm 20:53 Clear 40 4.4 27 -2.8 60 60 Calm 30.24 1024 10 16 0.00 0.00
9:53 pm 21:53 Clear 41 5 29 -1.7 62 62 Calm 30.24 1024 10 16 0.00 0.00
10:53 pm 22:53 Mostly Clear 39 3.9 29 -1.7 67 67 Calm 30.22 1023 10 16 0.00 0.00
11:53 pm 23:53 Clear 39 3.9 29 -1.7 67 67 Calm 30.21 1023 10 16 0.00 0.00

Powered by AerisWeather